"Pseudo-MPEC" for P21Y3OB

Created 2024 Sep 11 2:22:17 UT using Find_Orb

Click here for an explanation of pseudo-MPECs

 
 Astrometry: 
     P21Y3OB* C2024 09 05.40993300 15 13.818+20 27 14.57   ~95Bb 22.57wXNEOCPF52
     P21Y3OB  C2024 09 05.42115600 15 11.393+20 27 12.77   ~95Bb 21.83wXNEOCPF52
     P21Y3OB  C2024 09 05.44366100 15 06.584+20 27 09.26   ~95Bb 22.51wXNEOCPF52
     P21Y3OB  C2024 09 05.53497300 14 46.688+20 26 49.64   ~95JM 22.50GVNEOCPF52
     P21Y3OB  C2024 09 05.53563000 14 46.558+20 26 49.52   ~95JM 22.80GVNEOCPF52
     P21Y3OB  C2024 09 05.53628700 14 46.397+20 26 49.20   ~95JM 22.06GVNEOCPF52

Station data:
(F52) Pan-STARRS 2, Haleakala  (N20.707382 W156.255910)  US/Hawaii.
   Observers J. Bulger, T. Dukes, T. Lowe, A. Schultz, M. Willman. Measurers
   K. Chambers, S. Chastel, T. de Boer, L. Denneau, J. Fairlamb, H.
   Flewelling, M. Huber, C.-C. Lin, E. Magnier, Y. Ramanjooloo, R. Wainscoat,
   R. Weryk. 1.8-m Ritchey-Chrétien + CCD.

Orbital elements:  P21Y3OB
   Perihelion 2024 Nov 17.19177 +/- 116 TT =  4:36:08 (JD 2460631.69177)
Epoch 2024 Sep  5.0 TT = JDT 2460558.5   Earth MOID: 0.0061   Ve: 0.0176
M 273.37286297 +/- 80               Me: 0.0132                   AutoNEOCP
n   1.18356393 +/- 0.139            Peri.  315.63742 +/- 25
a   0.88513238 +/- 0.0695           Node   177.79560 +/- 53
e   0.6177140 +/- 0.189             Incl.   11.38087 +/- 3.4
P   0.833/304.160d         H 25.02  G  0.15   U 11.5  SR
q 0.33837369 +/- 0.224    Q 1.43189108 +/- 0.115          (J2000 ecliptic)
From 6 observations 2024 Sept. 5 (3.0 hr); mean residual 0".12
Residuals in arcseconds: 
240905 F52  .18+  .00     240905 F52  .09+  .12+    240905 F52  .15+  .06+    
240905 F52  .27-  .10-    240905 F52  .05-  .01+    240905 F52  .10-  .09-    

Ephemerides (geocentric):
Date (UTC) HH   RA             Dec           delta  r     elong  mag " sig PA
---- --------  ------------   ------------  ------ ------ -----  --- --------
2024 09 11 02  23 44 52.620   +19 25 20.56  .09291 1.0917 155.1 21.1 4022  99
2024 09 11 03  23 44 30.758   +19 24 21.16  .09249 1.0913 155.2 21.1 4102  99
2024 09 11 04  23 44 08.702   +19 23 20.95  .09208 1.0910 155.2 21.1 4182  99
2024 09 11 05  23 43 46.450   +19 22 19.94  .09166 1.0906 155.3 21.1 4264  99
2024 09 11 06  23 43 23.998   +19 21 18.11  .09125 1.0903 155.4 21.1 4347  99
2024 09 11 07  23 43 01.345   +19 20 15.44  .09083 1.0899 155.4 21.1 4431  99
2024 09 11 08  23 42 38.488   +19 19 11.92  .09042 1.0896 155.5 21.1 4516  99
2024 09 11 09  23 42 15.424   +19 18 07.54  .09000 1.0892 155.6 21.0 4603  99
2024 09 11 10  23 41 52.151   +19 17 02.29  .08959 1.0889 155.6 21.0 4691  99
2024 09 11 11  23 41 28.666   +19 15 56.15  .08918 1.0885 155.7 21.0 4780  99
2024 09 11 12  23 41 04.967   +19 14 49.11  .08876 1.0881 155.8 21.0 4870  99
2024 09 11 13  23 40 41.051   +19 13 41.16  .08835 1.0878 155.8 21.0 4962  99
2024 09 11 14  23 40 16.914   +19 12 32.27  .08794 1.0874 155.9 21.0 5055  99
2024 09 11 15  23 39 52.555   +19 11 22.44  .08753 1.0871 155.9 21.0 5150  99
2024 09 11 16  23 39 27.971   +19 10 11.66  .08712 1.0867 156.0 21.0 5246  99
2024 09 11 17  23 39 03.158   +19 08 59.89  .08671 1.0864 156.1 20.9 5343  99
2024 09 11 18  23 38 38.114   +19 07 47.14  .08629 1.0860 156.1 20.9 5442  99
2024 09 11 19  23 38 12.836   +19 06 33.38  .08588 1.0857 156.2 20.9 5542  99
2024 09 11 20  23 37 47.320   +19 05 18.60  .08547 1.0853 156.3 20.9 5644  99
2024 09 11 21  23 37 21.564   +19 04 02.78  .08506 1.0849 156.3 20.9 5747  99
2024 09 11 22  23 36 55.564   +19 02 45.91  .08465 1.0846 156.4 20.9 5852  99
2024 09 11 23  23 36 29.318   +19 01 27.96  .08425 1.0842 156.4 20.9 5958 100
2024 09 12 00  23 36 02.822   +19 00 08.92  .08384 1.0839 156.5 20.9 6066 100
2024 09 12 01  23 35 36.072   +18 58 48.77  .08343 1.0835 156.6 20.8 6175 100
2024 09 12 02  23 35 09.066   +18 57 27.50  .08302 1.0831 156.6 20.8 6286 100
2024 09 12 03  23 34 41.800   +18 56 05.08  .08261 1.0828 156.7 20.8 6398 100
2024 09 12 04  23 34 14.271   +18 54 41.50  .08220 1.0824 156.7 20.8 6513 100
2024 09 12 05  23 33 46.475   +18 53 16.73  .08180 1.0821 156.8 20.8 6628 100
2024 09 12 06  23 33 18.408   +18 51 50.76  .08139 1.0817 156.9 20.8 6746 100
2024 09 12 07  23 32 50.068   +18 50 23.56  .08098 1.0814 156.9 20.8 6865 100
2024 09 12 08  23 32 21.450   +18 48 55.12  .08058 1.0810 157.0 20.8 6986 100
2024 09 12 09  23 31 52.550   +18 47 25.41  .08017 1.0806 157.0 20.7 7109 100
2024 09 12 10  23 31 23.365   +18 45 54.42  .07977 1.0803 157.1 20.7 7233 100
2024 09 12 11  23 30 53.891   +18 44 22.11  .07936 1.0799 157.1 20.7 7360 100
2024 09 12 12  23 30 24.123   +18 42 48.47  .07896 1.0796 157.2 20.7 7488 100
2024 09 12 13  23 29 54.059   +18 41 13.48  .07856 1.0792 157.3 20.7 7618 100
2024 09 12 14  23 29 23.694   +18 39 37.11  .07815 1.0788 157.3 20.7 7750 100
2024 09 12 15  23 28 53.023   +18 37 59.34  .07775 1.0785 157.4 20.7 7884 100
2024 09 12 16  23 28 22.042   +18 36 20.13  .07735 1.0781 157.4 20.7 8020 100
2024 09 12 17  23 27 50.748   +18 34 39.48  .07694 1.0777 157.5 20.6 8157 100
2024 09 12 18  23 27 19.136   +18 32 57.35  .07654 1.0774 157.5 20.6 8297 100
2024 09 12 19  23 26 47.201   +18 31 13.71  .07614 1.0770 157.6 20.6 8439 100
2024 09 12 20  23 26 14.939   +18 29 28.54  .07574 1.0767 157.6 20.6 8583 100
2024 09 12 21  23 25 42.346   +18 27 41.82  .07534 1.0763 157.7 20.6 8729 100
2024 09 12 22  23 25 09.416   +18 25 53.51  .07494 1.0759 157.7 20.6 8877 100
2024 09 12 23  23 24 36.145   +18 24 03.58  .07454 1.0756 157.8 20.6 9027 100
2024 09 13 00  23 24 02.528   +18 22 12.01  .07414 1.0752 157.8 20.5 9180 101
2024 09 13 01  23 23 28.560   +18 20 18.77  .07374 1.0748 157.9 20.5 9335 101